Regional Weather Roundup
Issued by NWS

Home | Current Version | Previous Version | Text Only | Print | Product List | Glossary Off
Versions: 1 2 3 4 5 6 7 8 9 10 11 12 13 14 15 16 17 18 19 20 21 22 23 24 25 26 27 28 29 30 31 32 33 34 35 36 37 38 39 40 41 42 43 44 45 46 47 48 49 50

000
ASUS43 KMKX 310310
RWRWI

WISCONSIN REGIONAL WEATHER ROUNDUP
NATIONAL WEATHER SERVICE MILWAUKEE/SULLIVAN WI
900 PM CST FRI JAN 30 2015

NOTE: "FAIR" INDICATES FEW OR NO CLOUDS BELOW 12,000 FEET WITH NO
SIGNIFICANT WEATHER AND/OR OBSTRUCTIONS TO VISIBILITY.

WIZ001-002-006>008-014>016-023>028-310400-
NORTHWEST WISCONSIN

CITY           SKY/WX    TMP DP  RH WIND       PRES   REMARKS
SUPERIOR ARPT  CLOUDY    17   7  64 CALM      30.21F
ASHLAND        CLOUDY    17   5  59 S8        30.23S WCI   7
HAYWARD        CLOUDY    16   6  65 S8        30.22R WCI   5
SIREN          CLOUDY    19  11  71 SE6       30.22F WCI  11
CUMBERLAND     MOCLDY    14   7  73 CALM      30.21F
RICE LAKE      CLOUDY    16   7  69 SE6       30.24F WCI   7
CHETEK         CLOUDY    15   7  69 CALM      30.24R
LADYSMITH      CLOUDY    17   8  68 S6        30.24F WCI   8
EAU CLAIRE     CLOUDY    19   7  59 S5        30.24F WCI  12
MENOMONIE      CLOUDY    18  10  70 CALM      30.25S
NEW RICHMOND   MOCLDY    19  13  78 S6        30.22F WCI  10
OSCEOLA        CLOUDY    21  15  79 SE3       30.24F
$$

WIZ003>005-009-010-017-018-310400-
NORTH CENTRAL WISCONSIN

CITY           SKY/WX    TMP DP  RH WIND       PRES   REMARKS
MANITOWISH WTR CLOUDY    15   4  62 SW9       30.18F WCI   3
ARBOR VITAE    CLOUDY    17   7  66 S10       30.19F WCI   4
WOODRUFF       CLOUDY    17   7  66 S10       30.19F WCI   4
RHINELANDER    CLOUDY    13   4  67 SW8       30.20F WCI   2
EAGLE RIVER    CLOUDY    15   4  61 SW6       30.19F WCI   6
LAND O LAKES   CLOUDY    16   5  62 S5        30.17F WCI   9
PHILLIPS       CLOUDY    14   5  68 S7        30.20F WCI   4
TOMAHAWK       CLOUDY    11   5  75 CALM      30.23F
MEDFORD        CLOUDY    11   3  71 S6        30.22F WCI   1
MERRILL        MOCLDY    11   5  76 CALM      30.24F
$$

WIZ029-030-035-036-043>047-310400-
CENTRAL WISCONSIN

CITY           SKY/WX    TMP DP  RH WIND       PRES   REMARKS
WAUSAU         PTCLDY    13   4  67 SW3       30.25R
MOSINEE        NOT AVBL
MARSHFIELD     PTCLDY    15   4  61 CALM      30.25F
STEVENS POINT  PTCLDY    14   5  67 SW3       30.27F
WAUPACA        CLEAR     17   9  71 S5        30.29F WCI  10
WAUTOMA        CLEAR      8   3  80 CALM      30.31F
WISC RAPIDS    CLEAR     14   3  61 S9        30.26F WCI   2
CAMP DOUGLAS   PTCLDY    11   8  87 SE6       30.28F WCI   1
$$

WIZ011>013-019>022-031-037>040-048>050-310400-
NORTHEAST WISCONSIN

CITY           SKY/WX    TMP DP  RH WIND       PRES   REMARKS
ANTIGO         MOCLDY    12   4  71 SW3       30.23F
SHAWANO        CLOUDY    19   7  59 CALM      30.29F
OCONTO         MOCLDY    18   9  67 CALM      30.31F
STURGEON BAY   CLOUDY    18   7  62 S7        30.32F WCI   8
GREEN BAY      CLOUDY    17  11  77 CALM      30.31F
MANITOWOC      MOCLDY    20  12  71 S5        30.34F WCI  13
APPLETON       MOCLDY    16   7  67 SW7       30.30F WCI   6
CLINTONVILLE   CLOUDY    19   9  63 CALM      30.29F
OSHKOSH        CLEAR     15   8  73 S6        30.31F WCI   6
$$

WIZ032>034-041-042-053>061-310400-
SOUTHWEST WISCONSIN

CITY           SKY/WX    TMP DP  RH WIND       PRES   REMARKS
LA CROSSE      MOCLDY    23  10  57 S9        30.28F WCI  13
SPARTA         CLOUDY    13   8  81 S3        30.29F
VIROQUA        CLOUDY    22  12  67 S7        30.27F WCI  13
BOSCOBEL       CLOUDY    19  12  74 CALM      30.34F
PRAIRIE DU CHI PTCLDY    20  10  66 CALM      30.32F
PLATTEVILLE    CLOUDY    22  16  78 S6        30.32F WCI  14
$$

WIZ056-057-062-063-064-067-068-310400-
SOUTH CENTRAL WISCONSIN

CITY           SKY/WX    TMP DP  RH WIND       PRES   REMARKS
REEDSBURG      CLEAR     18   8  66 S3        30.31F
BARABOO/DELLS  CLEAR     15   7  70 S6        30.30F WCI   7
LONE ROCK      PTCLDY    15   8  73 SE3       30.34F
MINERAL POINT  CLOUDY    21  12  68 S5        30.31F WCI  15
MADISON        PTCLDY    17   8  67 S3        30.33F
MIDDLETON      CLEAR     18  10  69 CALM      30.34F
WATERTOWN      CLEAR     17  10  76 S3        30.34F
MONROE         CLEAR     18  14  86 S7        30.32F WCI   8
JANESVILLE     CLEAR     19  12  73 S5        30.36F WCI  13
$$

WIZ051-052-058>065-066-070>072-310400-
SOUTHEAST WISCONSIN

CITY           SKY/WX    TMP DP  RH WIND       PRES   REMARKS
MILWAUKEE      PTCLDY    21   9  59 S7        30.36F WCI  12
WAUKESHA       CLEAR     18  10  73 SW3       30.35F
MILWAUKEE/TIMM CLEAR     21  10  63 SW7       30.36F WCI  13
RACINE         PTCLDY    20  10  65 SW6       30.38F WCI  12
BURLINGTON     PTCLDY    14   8  79 CALM      30.37F
KENOSHA        MOCLDY    22  11  62 SW6       30.37F WCI  14
FOND DU LAC    CLEAR     14   8  77 S6        30.32F WCI   5
SHEBOYGAN      PTCLDY    18  10  71 SW7       30.33F WCI   9
WEST BEND      CLEAR     18   9  68 CALM      30.33F
JUNEAU         PTCLDY    18  11  73 S10       30.33F WCI   7
$$

LSZ147-162-310400-
LAKE SUPERIOR

STATION/POSITION TIME  TEMP    WIND        PRES    WAVE
                       AIR SEA DIR/SP/G            HT/PER
                 (UTC) (F)     (DEG/KT/KT) (MB)    (FT/S)
DEVILS ISLAND    0300   20     240/ 17/ 21 1024.7F
PORT WING        0200   18     200/  7/  9 1023.7
SAXON HARBOR     0200   20     200/  7/  9 1023.4F
$$

LMZ867-665-643>646-310400-
LAKE MICHIGAN

STATION/POSITION TIME  TEMP    WIND        PRES    WAVE
                       AIR SEA DIR/SP/G            HT/PER
                 (UTC) (F)     (DEG/KT/KT) (MB)    (FT/S)
NORTHPORT PIER   0215   16     190/  2/  5 1026.8F
SISTER BAY       0213   16     200/  8/ 10   N/A
KEWAUNEE LAKESHO 0200   20     210/  8/ 11 1026.6F
SHEBOYGAN LAKESH 0300   22     210/ 11/ 12 1028.6F
PORT WASHINGTON  0200   23     220/  5/  7 1028.8F
MILWAUKEE LAKESH 0200   25     230/  8/ 11   N/A
KENOSHA   LAKESH 0300   23     220/  4/  7 1028.4F
$$

TC  - TEMPERATURE IN CELSIUS
VSB - VISIBILITY IN STATUTE MILES
WCI - WIND CHILL INDEX
HX  - HEAT INDEX



USA.gov is the U.S. government's official web portal to all federal, state and local government web resources and services.